owner,sensor,date,latitude,longitude,vertical_datum,sea_water_practical_salinity,qcFlag 
NERRS,ioos:station:NOAA.NERRS:gtmpcwq:1,2015-04-01T00:45:00Z,29.6671,-81.2574,1.38,13.1,1111122 
NERRS,ioos:station:NOAA.NERRS:gtmpcwq:1,2015-04-01T01:45:00Z,29.6671,-81.2574,1.47,15.4,1111122 
NERRS,ioos:station:NOAA.NERRS:gtmpcwq:1,2015-04-01T02:45:00Z,29.6671,-81.2574,1.47,16.4,1111122 
NERRS,ioos:station:NOAA.NERRS:gtmpcwq:1,2015-04-01T03:45:00Z,29.6671,-81.2574,1.4,15.9,1111122 
NERRS,ioos:station:NOAA.NERRS:gtmpcwq:1,2015-04-01T04:45:00Z,29.6671,-81.2574,1.33,16.2,1111122 
NERRS,ioos:station:NOAA.NERRS:gtmpcwq:1,2015-04-01T06:45:00Z,29.6671,-81.2574,1.2,15.7,1111122 
NERRS,ioos:station:NOAA.NERRS:gtmpcwq:1,2015-04-01T07:45:00Z,29.6671,-81.2574,1.15,15.4,1111122 
NERRS,ioos:station:NOAA.NERRS:gtmpcwq:1,2015-04-01T09:45:00Z,29.6671,-81.2574,1.08,14.7,1111122 
NERRS,ioos:station:NOAA.NERRS:gtmpcwq:1,2015-04-01T10:45:00Z,29.6671,-81.2574,1.11,13.6,1111122 
NERRS,ioos:station:NOAA.NERRS:gtmpcwq:1,2015-04-01T11:45:00Z,29.6671,-81.2574,1.2,12.5,1111122 
NERRS,ioos:station:NOAA.NERRS:gtmpcwq:1,2015-04-01T12:45:00Z,29.6671,-81.2574,1.3,15.0,1111122 
NERRS,ioos:station:NOAA.NERRS:gtmpcwq:1,2015-04-01T13:45:00Z,29.6671,-81.2574,1.41,13.3,1111122 
NERRS,ioos:station:NOAA.NERRS:gtmpcwq:1,2015-04-01T14:45:00Z,29.6671,-81.2574,1.46,17.3,1111122 
NERRS,ioos:station:NOAA.NERRS:gtmpcwq:1,2015-04-01T15:45:00Z,29.6671,-81.2574,1.4,18.1,1111122 
NERRS,ioos:station:NOAA.NERRS:gtmpcwq:1,2015-04-01T16:45:00Z,29.6671,-81.2574,1.33,18.0,1111122 
NERRS,ioos:station:NOAA.NERRS:gtmpcwq:1,2015-04-01T17:45:00Z,29.6671,-81.2574,1.25,17.7,1111122 
NERRS,ioos:station:NOAA.NERRS:gtmpcwq:1,2015-04-01T18:45:00Z,29.6671,-81.2574,1.19,17.3,1111122 
NERRS,ioos:station:NOAA.NERRS:gtmpcwq:1,2015-04-01T19:45:00Z,29.6671,-81.2574,1.13,17.2,1111122 
NERRS,ioos:station:NOAA.NERRS:gtmpcwq:1,2015-04-01T20:45:00Z,29.6671,-81.2574,1.09,16.7,1111122 
NERRS,ioos:station:NOAA.NERRS:gtmpcwq:1,2015-04-01T21:45:00Z,29.6671,-81.2574,1.06,15.9,1111122 
NERRS,ioos:station:NOAA.NERRS:gtmpcwq:1,2015-04-01T22:45:00Z,29.6671,-81.2574,1.13,8.6,1111122 
NERRS,ioos:station:NOAA.NERRS:gtmpcwq:1,2015-04-02T00:45:00Z,29.6671,-81.2574,1.32,10.2,1111122 
NERRS,ioos:station:NOAA.NERRS:gtmpcwq:1,2015-04-02T01:45:00Z,29.6671,-81.2574,1.46,12.3,1111122 
NERRS,ioos:station:NOAA.NERRS:gtmpcwq:1,2015-04-02T02:45:00Z,29.6671,-81.2574,1.55,14.0,1111122 
NERRS,ioos:station:NOAA.NERRS:gtmpcwq:1,2015-04-02T03:45:00Z,29.6671,-81.2574,1.52,14.9,1111122 
NERRS,ioos:station:NOAA.NERRS:gtmpcwq:1,2015-04-02T04:45:00Z,29.6671,-81.2574,1.44,13.9,1111122 
NERRS,ioos:station:NOAA.NERRS:gtmpcwq:1,2015-04-02T05:45:00Z,29.6671,-81.2574,1.37,14.6,1111122 
NERRS,ioos:station:NOAA.NERRS:gtmpcwq:1,2015-04-02T06:45:00Z,29.6671,-81.2574,1.3,14.4,1111122 
NERRS,ioos:station:NOAA.NERRS:gtmpcwq:1,2015-04-02T07:45:00Z,29.6671,-81.2574,1.24,14.4,1111122 
NERRS,ioos:station:NOAA.NERRS:gtmpcwq:1,2015-04-02T09:45:00Z,29.6671,-81.2574,1.16,13.4,1111122 
NERRS,ioos:station:NOAA.NERRS:gtmpcwq:1,2015-04-02T10:45:00Z,29.6671,-81.2574,1.19,11.3,1111122 
NERRS,ioos:station:NOAA.NERRS:gtmpcwq:1,2015-04-02T12:45:00Z,29.6671,-81.2574,1.39,12.1,1111122 
NERRS,ioos:station:NOAA.NERRS:gtmpcwq:1,2015-04-02T13:45:00Z,29.6671,-81.2574,1.53,15.2,1111122 
NERRS,ioos:station:NOAA.NERRS:gtmpcwq:1,2015-04-02T14:45:00Z,29.6671,-81.2574,1.64,19.3,1111122 
NERRS,ioos:station:NOAA.NERRS:gtmpcwq:1,2015-04-02T15:45:00Z,29.6671,-81.2574,1.65,19.8,1111122 
NERRS,ioos:station:NOAA.NERRS:gtmpcwq:1,2015-04-02T16:45:00Z,29.6671,-81.2574,1.58,18.3,1111122 
NERRS,ioos:station:NOAA.NERRS:gtmpcwq:1,2015-04-02T17:45:00Z,29.6671,-81.2574,1.49,17.3,1111122 
NERRS,ioos:station:NOAA.NERRS:gtmpcwq:1,2015-04-02T18:45:00Z,29.6671,-81.2574,1.41,17.7,1111122 
NERRS,ioos:station:NOAA.NERRS:gtmpcwq:1,2015-04-02T19:45:00Z,29.6671,-81.2574,1.34,16.9,1111122 
NERRS,ioos:station:NOAA.NERRS:gtmpcwq:1,2015-04-02T20:45:00Z,29.6671,-81.2574,1.28,15.9,1111122 
NERRS,ioos:station:NOAA.NERRS:gtmpcwq:1,2015-04-02T21:45:00Z,29.6671,-81.2574,1.24,14.2,1111122 
NERRS,ioos:station:NOAA.NERRS:gtmpcwq:1,2015-04-02T22:45:00Z,29.6671,-81.2574,1.23,13.3,1111122 
NERRS,ioos:station:NOAA.NERRS:gtmpcwq:1,2015-04-02T23:45:00Z,29.6671,-81.2574,1.3,9.3,1111122 
NERRS,ioos:station:NOAA.NERRS:gtmpcwq:1,2015-04-03T00:45:00Z,29.6671,-81.2574,1.41,13.3,1111122 
NERRS,ioos:station:NOAA.NERRS:gtmpcwq:1,2015-04-03T01:45:00Z,29.6671,-81.2574,1.54,14.5,1111122 
NERRS,ioos:station:NOAA.NERRS:gtmpcwq:1,2015-04-03T02:45:00Z,29.6671,-81.2574,1.65,16.8,1111122 
NERRS,ioos:station:NOAA.NERRS:gtmpcwq:1,2015-04-03T03:45:00Z,29.6671,-81.2574,1.67,19.0,1111122 
NERRS,ioos:station:NOAA.NERRS:gtmpcwq:1,2015-04-03T04:45:00Z,29.6671,-81.2574,1.6,17.5,1111122 
NERRS,ioos:station:NOAA.NERRS:gtmpcwq:1,2015-04-03T05:45:00Z,29.6671,-81.2574,1.5,15.2,1111122 
NERRS,ioos:station:NOAA.NERRS:gtmpcwq:1,2015-04-03T06:45:00Z,29.6671,-81.2574,1.41,15.9,1111122 
NERRS,ioos:station:NOAA.NERRS:gtmpcwq:1,2015-04-03T07:45:00Z,29.6671,-81.2574,1.33,16.1,1111122 
NERRS,ioos:station:NOAA.NERRS:gtmpcwq:1,2015-04-03T09:45:00Z,29.6671,-81.2574,1.22,14.9,1111122 
NERRS,ioos:station:NOAA.NERRS:gtmpcwq:1,2015-04-03T10:45:00Z,29.6671,-81.2574,1.19,13.6,1111122 
NERRS,ioos:station:NOAA.NERRS:gtmpcwq:1,2015-04-03T11:45:00Z,29.6671,-81.2574,1.23,9.5,1111122 
NERRS,ioos:station:NOAA.NERRS:gtmpcwq:1,2015-04-03T12:45:00Z,29.6671,-81.2574,1.32,10.5,1111122 
NERRS,ioos:station:NOAA.NERRS:gtmpcwq:1,2015-04-03T13:45:00Z,29.6671,-81.2574,1.43,15.6,1111122 
NERRS,ioos:station:NOAA.NERRS:gtmpcwq:1,2015-04-03T15:45:00Z,29.6671,-81.2574,1.6,19.4,1111122 
NERRS,ioos:station:NOAA.NERRS:gtmpcwq:1,2015-04-03T16:45:00Z,29.6671,-81.2574,1.54,19.4,1111122 
NERRS,ioos:station:NOAA.NERRS:gtmpcwq:1,2015-04-03T17:45:00Z,29.6671,-81.2574,1.46,19.4,1111122 
NERRS,ioos:station:NOAA.NERRS:gtmpcwq:1,2015-04-03T18:45:00Z,29.6671,-81.2574,1.39,19.0,1111122 
NERRS,ioos:station:NOAA.NERRS:gtmpcwq:1,2015-04-03T20:45:00Z,29.6671,-81.2574,1.25,18.2,1111122 
NERRS,ioos:station:NOAA.NERRS:gtmpcwq:1,2015-04-03T21:45:00Z,29.6671,-81.2574,1.21,17.0,1111122 
NERRS,ioos:station:NOAA.NERRS:gtmpcwq:1,2015-04-03T22:45:00Z,29.6671,-81.2574,1.17,16.6,1111122 
NERRS,ioos:station:NOAA.NERRS:gtmpcwq:1,2015-04-03T23:45:00Z,29.6671,-81.2574,1.17,13.8,1111122 
NERRS,ioos:station:NOAA.NERRS:gtmpcwq:1,2015-04-04T01:45:00Z,29.6671,-81.2574,1.34,13.0,1111122 
NERRS,ioos:station:NOAA.NERRS:gtmpcwq:1,2015-04-04T02:45:00Z,29.6671,-81.2574,1.46,14.2,1111122 
NERRS,ioos:station:NOAA.NERRS:gtmpcwq:1,2015-04-04T03:45:00Z,29.6671,-81.2574,1.56,18.1,1111122 
NERRS,ioos:station:NOAA.NERRS:gtmpcwq:1,2015-04-04T04:45:00Z,29.6671,-81.2574,1.54,19.0,1111122 
NERRS,ioos:station:NOAA.NERRS:gtmpcwq:1,2015-04-04T06:45:00Z,29.6671,-81.2574,1.38,18.2,1111122 
NERRS,ioos:station:NOAA.NERRS:gtmpcwq:1,2015-04-04T07:45:00Z,29.6671,-81.2574,1.3,17.9,1111122 
NERRS,ioos:station:NOAA.NERRS:gtmpcwq:1,2015-04-04T08:45:00Z,29.6671,-81.2574,1.24,17.1,1111122 
NERRS,ioos:station:NOAA.NERRS:gtmpcwq:1,2015-04-04T09:45:00Z,29.6671,-81.2574,1.19,16.4,1111122 
NERRS,ioos:station:NOAA.NERRS:gtmpcwq:1,2015-04-04T10:45:00Z,29.6671,-81.2574,1.16,15.6,1111122 
NERRS,ioos:station:NOAA.NERRS:gtmpcwq:1,2015-04-04T11:45:00Z,29.6671,-81.2574,1.13,15.5,1111122 
NERRS,ioos:station:NOAA.NERRS:gtmpcwq:1,2015-04-04T12:45:00Z,29.6671,-81.2574,1.16,11.1,1111122 
NERRS,ioos:station:NOAA.NERRS:gtmpcwq:1,2015-04-04T13:45:00Z,29.6671,-81.2574,1.22,13.0,1111122 
NERRS,ioos:station:NOAA.NERRS:gtmpcwq:1,2015-04-04T14:45:00Z,29.6671,-81.2574,1.32,15.1,1111122 
NERRS,ioos:station:NOAA.NERRS:gtmpcwq:1,2015-04-04T16:45:00Z,29.6671,-81.2574,1.42,20.2,1111122 
NERRS,ioos:station:NOAA.NERRS:gtmpcwq:1,2015-04-04T17:45:00Z,29.6671,-81.2574,1.35,21.0,1111122 
NERRS,ioos:station:NOAA.NERRS:gtmpcwq:1,2015-04-04T19:45:00Z,29.6671,-81.2574,1.21,19.5,1111122 
NERRS,ioos:station:NOAA.NERRS:gtmpcwq:1,2015-04-04T20:45:00Z,29.6671,-81.2574,1.16,19.2,1111122 
NERRS,ioos:station:NOAA.NERRS:gtmpcwq:1,2015-04-04T21:45:00Z,29.6671,-81.2574,1.13,18.8,1111122 
NERRS,ioos:station:NOAA.NERRS:gtmpcwq:1,2015-04-04T23:45:00Z,29.6671,-81.2574,1.13,17.8,1111122 
NERRS,ioos:station:NOAA.NERRS:gtmpcwq:1,2015-04-05T00:45:00Z,29.6671,-81.2574,1.19,20.5,1111122 
NERRS,ioos:station:NOAA.NERRS:gtmpcwq:1,2015-04-05T01:45:00Z,29.6671,-81.2574,1.26,14.5,1111122 
NERRS,ioos:station:NOAA.NERRS:gtmpcwq:1,2015-04-05T02:45:00Z,29.6671,-81.2574,1.38,16.2,1111122 
NERRS,ioos:station:NOAA.NERRS:gtmpcwq:1,2015-04-05T03:45:00Z,29.6671,-81.2574,1.5,16.2,1111122 
NERRS,ioos:station:NOAA.NERRS:gtmpcwq:1,2015-04-05T04:45:00Z,29.6671,-81.2574,1.56,19.8,1111122 
NERRS,ioos:station:NOAA.NERRS:gtmpcwq:1,2015-04-05T05:45:00Z,29.6671,-81.2574,1.51,20.0,1111122 
NERRS,ioos:station:NOAA.NERRS:gtmpcwq:1,2015-04-05T07:45:00Z,29.6671,-81.2574,1.35,19.6,1111122 
NERRS,ioos:station:NOAA.NERRS:gtmpcwq:1,2015-04-05T08:45:00Z,29.6671,-81.2574,1.29,18.6,1111122 
NERRS,ioos:station:NOAA.NERRS:gtmpcwq:1,2015-04-05T10:45:00Z,29.6671,-81.2574,1.24,16.5,1111122 
NERRS,ioos:station:NOAA.NERRS:gtmpcwq:1,2015-04-05T12:45:00Z,29.6671,-81.2574,1.25,11.7,1111122 
NERRS,ioos:station:NOAA.NERRS:gtmpcwq:1,2015-04-05T13:45:00Z,29.6671,-81.2574,1.34,13.8,1111122 
NERRS,ioos:station:NOAA.NERRS:gtmpcwq:1,2015-04-05T14:45:00Z,29.6671,-81.2574,1.48,10.8,1111122 
NERRS,ioos:station:NOAA.NERRS:gtmpcwq:1,2015-04-05T15:45:00Z,29.6671,-81.2574,1.62,10.5,1111122 
NERRS,ioos:station:NOAA.NERRS:gtmpcwq:1,2015-04-05T16:45:00Z,29.6671,-81.2574,1.7,12.1,1111122 
NERRS,ioos:station:NOAA.NERRS:gtmpcwq:1,2015-04-05T17:45:00Z,29.6671,-81.2574,1.67,15.5,1111122 
NERRS,ioos:station:NOAA.NERRS:gtmpcwq:1,2015-04-05T18:45:00Z,29.6671,-81.2574,1.58,11.3,1111122 
NERRS,ioos:station:NOAA.NERRS:gtmpcwq:1,2015-04-05T19:45:00Z,29.6671,-81.2574,1.48,10.8,1111122 
NERRS,ioos:station:NOAA.NERRS:gtmpcwq:1,2015-04-05T21:45:00Z,29.6671,-81.2574,1.33,12.6,1111122 
NERRS,ioos:station:NOAA.NERRS:gtmpcwq:1,2015-04-05T22:45:00Z,29.6671,-81.2574,1.27,12.6,1111122 
NERRS,ioos:station:NOAA.NERRS:gtmpcwq:1,2015-04-05T23:45:00Z,29.6671,-81.2574,1.24,9.9,1111122 
NERRS,ioos:station:NOAA.NERRS:gtmpcwq:1,2015-04-06T00:45:00Z,29.6671,-81.2574,1.28,6.2,1111122 
NERRS,ioos:station:NOAA.NERRS:gtmpcwq:1,2015-04-06T01:45:00Z,29.6671,-81.2574,1.37,7.6,1111122 
NERRS,ioos:station:NOAA.NERRS:gtmpcwq:1,2015-04-06T02:45:00Z,29.6671,-81.2574,1.5,8.7,1111122 
NERRS,ioos:station:NOAA.NERRS:gtmpcwq:1,2015-04-06T03:45:00Z,29.6671,-81.2574,1.65,10.0,1111122 
NERRS,ioos:station:NOAA.NERRS:gtmpcwq:1,2015-04-06T04:45:00Z,29.6671,-81.2574,1.74,12.6,1111122 
NERRS,ioos:station:NOAA.NERRS:gtmpcwq:1,2015-04-06T05:45:00Z,29.6671,-81.2574,1.75,15.7,1111122 
NERRS,ioos:station:NOAA.NERRS:gtmpcwq:1,2015-04-06T06:45:00Z,29.6671,-81.2574,1.67,13.8,1111122 
NERRS,ioos:station:NOAA.NERRS:gtmpcwq:1,2015-04-06T07:45:00Z,29.6671,-81.2574,1.57,10.1,1111122 
NERRS,ioos:station:NOAA.NERRS:gtmpcwq:1,2015-04-06T08:45:00Z,29.6671,-81.2574,1.48,8.7,1111122 
NERRS,ioos:station:NOAA.NERRS:gtmpcwq:1,2015-04-06T09:45:00Z,29.6671,-81.2574,1.4,8.0,1111122 
NERRS,ioos:station:NOAA.NERRS:gtmpcwq:1,2015-04-06T11:45:00Z,29.6671,-81.2574,1.29,6.7,1111122 
NERRS,ioos:station:NOAA.NERRS:gtmpcwq:1,2015-04-06T13:45:00Z,29.6671,-81.2574,1.35,6.6,1111122 
NERRS,ioos:station:NOAA.NERRS:gtmpcwq:1,2015-04-06T14:45:00Z,29.6671,-81.2574,1.45,8.1,1111122 
NERRS,ioos:station:NOAA.NERRS:gtmpcwq:1,2015-04-06T16:45:00Z,29.6671,-81.2574,1.67,11.1,1111122 
NERRS,ioos:station:NOAA.NERRS:gtmpcwq:1,2015-04-06T17:45:00Z,29.6671,-81.2574,1.68,12.3,1111122 
NERRS,ioos:station:NOAA.NERRS:gtmpcwq:1,2015-04-06T18:45:00Z,29.6671,-81.2574,1.6,10.6,1111122 
NERRS,ioos:station:NOAA.NERRS:gtmpcwq:1,2015-04-06T19:45:00Z,29.6671,-81.2574,1.5,8.9,1111122 
NERRS,ioos:station:NOAA.NERRS:gtmpcwq:1,2015-04-06T21:45:00Z,29.6671,-81.2574,1.35,7.7,1111122 
NERRS,ioos:station:NOAA.NERRS:gtmpcwq:1,2015-04-06T22:45:00Z,29.6671,-81.2574,1.29,7.6,1111122 
NERRS,ioos:station:NOAA.NERRS:gtmpcwq:1,2015-04-07T00:45:00Z,29.6671,-81.2574,1.21,6.8,1111122 
NERRS,ioos:station:NOAA.NERRS:gtmpcwq:1,2015-04-07T01:45:00Z,29.6671,-81.2574,1.27,5.4,1111122 
NERRS,ioos:station:NOAA.NERRS:gtmpcwq:1,2015-04-07T02:45:00Z,29.6671,-81.2574,1.37,6.4,1111122 
NERRS,ioos:station:NOAA.NERRS:gtmpcwq:1,2015-04-07T03:45:00Z,29.6671,-81.2574,1.51,7.5,1111122 
NERRS,ioos:station:NOAA.NERRS:gtmpcwq:1,2015-04-07T04:45:00Z,29.6671,-81.2574,1.65,9.2,1111122 
NERRS,ioos:station:NOAA.NERRS:gtmpcwq:1,2015-04-07T06:45:00Z,29.6671,-81.2574,1.67,12.0,1111122 
NERRS,ioos:station:NOAA.NERRS:gtmpcwq:1,2015-04-07T08:45:00Z,29.6671,-81.2574,1.48,7.5,1111122 
NERRS,ioos:station:NOAA.NERRS:gtmpcwq:1,2015-04-07T09:45:00Z,29.6671,-81.2574,1.4,6.6,1111122 
NERRS,ioos:station:NOAA.NERRS:gtmpcwq:1,2015-04-07T10:45:00Z,29.6671,-81.2574,1.33,5.9,1111122 
NERRS,ioos:station:NOAA.NERRS:gtmpcwq:1,2015-04-07T12:45:00Z,29.6671,-81.2574,1.24,5.8,1111122 
NERRS,ioos:station:NOAA.NERRS:gtmpcwq:1,2015-04-07T13:45:00Z,29.6671,-81.2574,1.23,5.2,1111122 
NERRS,ioos:station:NOAA.NERRS:gtmpcwq:1,2015-04-07T14:45:00Z,29.6671,-81.2574,1.3,4.7,1111122 
NERRS,ioos:station:NOAA.NERRS:gtmpcwq:1,2015-04-07T16:45:00Z,29.6671,-81.2574,1.52,7.6,1111122 
NERRS,ioos:station:NOAA.NERRS:gtmpcwq:1,2015-04-07T17:45:00Z,29.6671,-81.2574,1.59,9.3,1111122 
NERRS,ioos:station:NOAA.NERRS:gtmpcwq:1,2015-04-07T18:45:00Z,29.6671,-81.2574,1.56,9.4,1111122 
NERRS,ioos:station:NOAA.NERRS:gtmpcwq:1,2015-04-07T20:45:00Z,29.6671,-81.2574,1.41,6.6,1111122 
NERRS,ioos:station:NOAA.NERRS:gtmpcwq:1,2015-04-07T21:45:00Z,29.6671,-81.2574,1.34,6.0,1111122 
NERRS,ioos:station:NOAA.NERRS:gtmpcwq:1,2015-04-07T22:45:00Z,29.6671,-81.2574,1.28,6.3,1111122 
NERRS,ioos:station:NOAA.NERRS:gtmpcwq:1,2015-04-08T00:45:00Z,29.6671,-81.2574,1.2,5.6,1111122 
NERRS,ioos:station:NOAA.NERRS:gtmpcwq:1,2015-04-08T01:45:00Z,29.6671,-81.2574,1.19,4.9,1111122 
NERRS,ioos:station:NOAA.NERRS:gtmpcwq:1,2015-04-08T02:45:00Z,29.6671,-81.2574,1.25,3.6,1111122 
NERRS,ioos:station:NOAA.NERRS:gtmpcwq:1,2015-04-08T03:45:00Z,29.6671,-81.2574,1.35,5.0,1111122 
NERRS,ioos:station:NOAA.NERRS:gtmpcwq:1,2015-04-08T04:45:00Z,29.6671,-81.2574,1.48,7.7,1111122 
NERRS,ioos:station:NOAA.NERRS:gtmpcwq:1,2015-04-08T06:45:00Z,29.6671,-81.2574,1.65,12.0,1111122 
NERRS,ioos:station:NOAA.NERRS:gtmpcwq:1,2015-04-08T07:45:00Z,29.6671,-81.2574,1.58,11.6,1111122 
NERRS,ioos:station:NOAA.NERRS:gtmpcwq:1,2015-04-08T08:45:00Z,29.6671,-81.2574,1.49,8.8,1111122 
NERRS,ioos:station:NOAA.NERRS:gtmpcwq:1,2015-04-08T09:45:00Z,29.6671,-81.2574,1.41,9.7,1111122 
NERRS,ioos:station:NOAA.NERRS:gtmpcwq:1,2015-04-08T10:45:00Z,29.6671,-81.2574,1.34,9.7,1111122 
NERRS,ioos:station:NOAA.NERRS:gtmpcwq:1,2015-04-08T12:45:00Z,29.6671,-81.2574,1.24,7.9,1111122 
NERRS,ioos:station:NOAA.NERRS:gtmpcwq:1,2015-04-08T13:45:00Z,29.6671,-81.2574,1.21,6.7,1111122 
NERRS,ioos:station:NOAA.NERRS:gtmpcwq:1,2015-04-08T14:45:00Z,29.6671,-81.2574,1.23,4.6,1111122 
NERRS,ioos:station:NOAA.NERRS:gtmpcwq:1,2015-04-08T15:45:00Z,29.6671,-81.2574,1.3,4.8,1111122 
NERRS,ioos:station:NOAA.NERRS:gtmpcwq:1,2015-04-08T16:45:00Z,29.6671,-81.2574,1.39,6.8,1111122 
NERRS,ioos:station:NOAA.NERRS:gtmpcwq:1,2015-04-08T17:45:00Z,29.6671,-81.2574,1.49,8.7,1111122 
NERRS,ioos:station:NOAA.NERRS:gtmpcwq:1,2015-04-08T18:45:00Z,29.6671,-81.2574,1.54,11.0,1111122 
NERRS,ioos:station:NOAA.NERRS:gtmpcwq:1,2015-04-08T20:45:00Z,29.6671,-81.2574,1.41,10.1,1111122 
NERRS,ioos:station:NOAA.NERRS:gtmpcwq:1,2015-04-08T21:45:00Z,29.6671,-81.2574,1.34,9.6,1111122 
NERRS,ioos:station:NOAA.NERRS:gtmpcwq:1,2015-04-08T23:45:00Z,29.6671,-81.2574,1.23,8.0,1111122 
NERRS,ioos:station:NOAA.NERRS:gtmpcwq:1,2015-04-09T00:45:00Z,29.6671,-81.2574,1.19,7.4,1111122 
NERRS,ioos:station:NOAA.NERRS:gtmpcwq:1,2015-04-09T01:45:00Z,29.6671,-81.2574,1.16,6.4,1111122 
NERRS,ioos:station:NOAA.NERRS:gtmpcwq:1,2015-04-09T02:45:00Z,29.6671,-81.2574,1.18,4.2,1111122 
NERRS,ioos:station:NOAA.NERRS:gtmpcwq:1,2015-04-09T03:45:00Z,29.6671,-81.2574,1.25,3.3,1111122 
NERRS,ioos:station:NOAA.NERRS:gtmpcwq:1,2015-04-09T04:45:00Z,29.6671,-81.2574,1.36,5.7,1111122 
NERRS,ioos:station:NOAA.NERRS:gtmpcwq:1,2015-04-09T06:45:00Z,29.6671,-81.2574,1.61,12.1,1111122 
NERRS,ioos:station:NOAA.NERRS:gtmpcwq:1,2015-04-09T07:45:00Z,29.6671,-81.2574,1.62,13.8,1111122 
NERRS,ioos:station:NOAA.NERRS:gtmpcwq:1,2015-04-09T08:45:00Z,29.6671,-81.2574,1.54,12.1,1111122 
NERRS,ioos:station:NOAA.NERRS:gtmpcwq:1,2015-04-09T09:45:00Z,29.6671,-81.2574,1.46,12.2,1111122 
NERRS,ioos:station:NOAA.NERRS:gtmpcwq:1,2015-04-09T10:45:00Z,29.6671,-81.2574,1.38,11.7,1111122 
NERRS,ioos:station:NOAA.NERRS:gtmpcwq:1,2015-04-09T11:45:00Z,29.6671,-81.2574,1.32,11.4,1111122 
NERRS,ioos:station:NOAA.NERRS:gtmpcwq:1,2015-04-09T13:45:00Z,29.6671,-81.2574,1.23,9.1,1111122 
NERRS,ioos:station:NOAA.NERRS:gtmpcwq:1,2015-04-09T14:45:00Z,29.6671,-81.2574,1.21,7.7,1111122 
NERRS,ioos:station:NOAA.NERRS:gtmpcwq:1,2015-04-09T15:45:00Z,29.6671,-81.2574,1.23,6.0,1111122 
NERRS,ioos:station:NOAA.NERRS:gtmpcwq:1,2015-04-09T16:45:00Z,29.6671,-81.2574,1.3,4.4,1111122 
NERRS,ioos:station:NOAA.NERRS:gtmpcwq:1,2015-04-09T17:45:00Z,29.6671,-81.2574,1.39,7.2,1111122 
NERRS,ioos:station:NOAA.NERRS:gtmpcwq:1,2015-04-09T18:45:00Z,29.6671,-81.2574,1.48,8.8,1111122 
NERRS,ioos:station:NOAA.NERRS:gtmpcwq:1,2015-04-09T20:45:00Z,29.6671,-81.2574,1.45,9.8,1111122 
NERRS,ioos:station:NOAA.NERRS:gtmpcwq:1,2015-04-09T22:45:00Z,29.6671,-81.2574,1.32,10.0,1111122 
NERRS,ioos:station:NOAA.NERRS:gtmpcwq:1,2015-04-10T00:45:00Z,29.6671,-81.2574,1.22,8.1,1111122 
NERRS,ioos:station:NOAA.NERRS:gtmpcwq:1,2015-04-10T01:45:00Z,29.6671,-81.2574,1.18,7.4,1111122 
NERRS,ioos:station:NOAA.NERRS:gtmpcwq:1,2015-04-10T02:45:00Z,29.6671,-81.2574,1.15,7.1,1111122 
NERRS,ioos:station:NOAA.NERRS:gtmpcwq:1,2015-04-10T03:45:00Z,29.6671,-81.2574,1.19,3.0,1111122 
NERRS,ioos:station:NOAA.NERRS:gtmpcwq:1,2015-04-10T04:45:00Z,29.6671,-81.2574,1.27,4.9,1111122 
NERRS,ioos:station:NOAA.NERRS:gtmpcwq:1,2015-04-10T06:45:00Z,29.6671,-81.2574,1.51,11.2,1111122 
NERRS,ioos:station:NOAA.NERRS:gtmpcwq:1,2015-04-10T07:45:00Z,29.6671,-81.2574,1.6,13.0,1111122 
NERRS,ioos:station:NOAA.NERRS:gtmpcwq:1,2015-04-10T08:45:00Z,29.6671,-81.2574,1.59,14.1,1111122 
NERRS,ioos:station:NOAA.NERRS:gtmpcwq:1,2015-04-10T09:45:00Z,29.6671,-81.2574,1.51,12.6,1111122 
NERRS,ioos:station:NOAA.NERRS:gtmpcwq:1,2015-04-10T10:45:00Z,29.6671,-81.2574,1.42,13.2,1111122 
NERRS,ioos:station:NOAA.NERRS:gtmpcwq:1,2015-04-10T12:45:00Z,29.6671,-81.2574,1.3,12.0,1111122 
NERRS,ioos:station:NOAA.NERRS:gtmpcwq:1,2015-04-10T13:45:00Z,29.6671,-81.2574,1.24,11.5,1111122 
NERRS,ioos:station:NOAA.NERRS:gtmpcwq:1,2015-04-10T15:45:00Z,29.6671,-81.2574,1.16,8.5,1111122 
NERRS,ioos:station:NOAA.NERRS:gtmpcwq:1,2015-04-10T16:45:00Z,29.6671,-81.2574,1.21,4.6,1111122 
NERRS,ioos:station:NOAA.NERRS:gtmpcwq:1,2015-04-10T17:45:00Z,29.6671,-81.2574,1.28,8.4,1111122 
NERRS,ioos:station:NOAA.NERRS:gtmpcwq:1,2015-04-10T19:45:00Z,29.6671,-81.2574,1.45,11.7,1111122 
NERRS,ioos:station:NOAA.NERRS:gtmpcwq:1,2015-04-10T21:45:00Z,29.6671,-81.2574,1.4,11.5,1111122 
NERRS,ioos:station:NOAA.NERRS:gtmpcwq:1,2015-04-10T22:45:00Z,29.6671,-81.2574,1.34,11.5,1111122 
NERRS,ioos:station:NOAA.NERRS:gtmpcwq:1,2015-04-10T23:45:00Z,29.6671,-81.2574,1.28,10.7,1111122 
NERRS,ioos:station:NOAA.NERRS:gtmpcwq:1,2015-04-11T01:45:00Z,29.6671,-81.2574,1.19,10.3,1111122 
NERRS,ioos:station:NOAA.NERRS:gtmpcwq:1,2015-04-11T02:45:00Z,29.6671,-81.2574,1.15,9.5,1111122 
NERRS,ioos:station:NOAA.NERRS:gtmpcwq:1,2015-04-11T03:45:00Z,29.6671,-81.2574,1.13,9.5,1111122 
NERRS,ioos:station:NOAA.NERRS:gtmpcwq:1,2015-04-11T04:45:00Z,29.6671,-81.2574,1.18,4.1,1111122 
NERRS,ioos:station:NOAA.NERRS:gtmpcwq:1,2015-04-11T06:45:00Z,29.6671,-81.2574,1.37,8.7,1111122 
NERRS,ioos:station:NOAA.NERRS:gtmpcwq:1,2015-04-11T08:45:00Z,29.6671,-81.2574,1.57,16.5,1111122 
NERRS,ioos:station:NOAA.NERRS:gtmpcwq:1,2015-04-11T09:45:00Z,29.6671,-81.2574,1.53,16.2,1111122 
NERRS,ioos:station:NOAA.NERRS:gtmpcwq:1,2015-04-11T10:45:00Z,29.6671,-81.2574,1.45,16.0,1111122 
NERRS,ioos:station:NOAA.NERRS:gtmpcwq:1,2015-04-11T11:45:00Z,29.6671,-81.2574,1.38,15.9,1111122 
NERRS,ioos:station:NOAA.NERRS:gtmpcwq:1,2015-04-11T12:45:00Z,29.6671,-81.2574,1.32,15.4,1111122 
NERRS,ioos:station:NOAA.NERRS:gtmpcwq:1,2015-04-11T13:45:00Z,29.6671,-81.2574,1.26,14.4,1111122 
NERRS,ioos:station:NOAA.NERRS:gtmpcwq:1,2015-04-11T14:45:00Z,29.6671,-81.2574,1.21,13.4,1111122 
NERRS,ioos:station:NOAA.NERRS:gtmpcwq:1,2015-04-11T16:45:00Z,29.6671,-81.2574,1.15,10.7,1111122 
NERRS,ioos:station:NOAA.NERRS:gtmpcwq:1,2015-04-11T17:45:00Z,29.6671,-81.2574,1.18,7.2,1111122 
NERRS,ioos:station:NOAA.NERRS:gtmpcwq:1,2015-04-11T18:45:00Z,29.6671,-81.2574,1.25,9.0,1111122 
NERRS,ioos:station:NOAA.NERRS:gtmpcwq:1,2015-04-11T19:45:00Z,29.6671,-81.2574,1.35,9.1,1111122 
NERRS,ioos:station:NOAA.NERRS:gtmpcwq:1,2015-04-11T20:45:00Z,29.6671,-81.2574,1.44,13.4,1111122 
NERRS,ioos:station:NOAA.NERRS:gtmpcwq:1,2015-04-11T23:45:00Z,29.6671,-81.2574,1.34,14.1,1111122 
NERRS,ioos:station:NOAA.NERRS:gtmpcwq:1,2015-04-12T00:45:00Z,29.6671,-81.2574,1.28,13.8,1111122 
NERRS,ioos:station:NOAA.NERRS:gtmpcwq:1,2015-04-12T01:45:00Z,29.6671,-81.2574,1.23,13.2,1111122 
NERRS,ioos:station:NOAA.NERRS:gtmpcwq:1,2015-04-12T02:45:00Z,29.6671,-81.2574,1.19,12.4,1111122 
NERRS,ioos:station:NOAA.NERRS:gtmpcwq:1,2015-04-12T03:45:00Z,29.6671,-81.2574,1.15,12.0,1111122 
NERRS,ioos:station:NOAA.NERRS:gtmpcwq:1,2015-04-12T04:45:00Z,29.6671,-81.2574,1.14,11.9,1111122 
NERRS,ioos:station:NOAA.NERRS:gtmpcwq:1,2015-04-12T06:45:00Z,29.6671,-81.2574,1.28,11.4,1111122 
NERRS,ioos:station:NOAA.NERRS:gtmpcwq:1,2015-04-12T07:45:00Z,29.6671,-81.2574,1.4,10.8,1111122 
NERRS,ioos:station:NOAA.NERRS:gtmpcwq:1,2015-04-12T08:45:00Z,29.6671,-81.2574,1.54,15.1,1111122 
NERRS,ioos:station:NOAA.NERRS:gtmpcwq:1,2015-04-12T09:45:00Z,29.6671,-81.2574,1.63,16.0,1111122 
NERRS,ioos:station:NOAA.NERRS:gtmpcwq:1,2015-04-12T10:45:00Z,29.6671,-81.2574,1.61,17.5,1111122 
NERRS,ioos:station:NOAA.NERRS:gtmpcwq:1,2015-04-12T11:45:00Z,29.6671,-81.2574,1.53,15.9,1111122 
NERRS,ioos:station:NOAA.NERRS:gtmpcwq:1,2015-04-12T12:45:00Z,29.6671,-81.2574,1.45,15.0,1111122 
NERRS,ioos:station:NOAA.NERRS:gtmpcwq:1,2015-04-12T13:45:00Z,29.6671,-81.2574,1.38,15.3,1111122 
NERRS,ioos:station:NOAA.NERRS:gtmpcwq:1,2015-04-12T16:45:00Z,29.6671,-81.2574,1.23,11.8,1111122 
NERRS,ioos:station:NOAA.NERRS:gtmpcwq:1,2015-04-12T18:45:00Z,29.6671,-81.2574,1.29,9.8,1111122 
NERRS,ioos:station:NOAA.NERRS:gtmpcwq:1,2015-04-12T19:45:00Z,29.6671,-81.2574,1.38,11.1,1111122 
NERRS,ioos:station:NOAA.NERRS:gtmpcwq:1,2015-04-12T21:45:00Z,29.6671,-81.2574,1.62,14.8,1111122 
NERRS,ioos:station:NOAA.NERRS:gtmpcwq:1,2015-04-12T22:45:00Z,29.6671,-81.2574,1.64,16.4,1111122 
NERRS,ioos:station:NOAA.NERRS:gtmpcwq:1,2015-04-13T00:45:00Z,29.6671,-81.2574,1.49,13.3,1111122 
NERRS,ioos:station:NOAA.NERRS:gtmpcwq:1,2015-04-13T01:45:00Z,29.6671,-81.2574,1.42,14.1,1111122 
NERRS,ioos:station:NOAA.NERRS:gtmpcwq:1,2015-04-13T02:45:00Z,29.6671,-81.2574,1.36,14.4,1111122 
NERRS,ioos:station:NOAA.NERRS:gtmpcwq:1,2015-04-13T03:45:00Z,29.6671,-81.2574,1.3,13.9,1111122 
NERRS,ioos:station:NOAA.NERRS:gtmpcwq:1,2015-04-13T04:45:00Z,29.6671,-81.2574,1.26,12.8,1111122 
NERRS,ioos:station:NOAA.NERRS:gtmpcwq:1,2015-04-13T06:45:00Z,29.6671,-81.2574,1.36,9.7,1111122 
NERRS,ioos:station:NOAA.NERRS:gtmpcwq:1,2015-04-13T07:45:00Z,29.6671,-81.2574,1.48,11.0,1111122 
NERRS,ioos:station:NOAA.NERRS:gtmpcwq:1,2015-04-13T08:45:00Z,29.6671,-81.2574,1.62,16.0,1111122 
NERRS,ioos:station:NOAA.NERRS:gtmpcwq:1,2015-04-13T09:45:00Z,29.6671,-81.2574,1.73,18.1,1111122 
NERRS,ioos:station:NOAA.NERRS:gtmpcwq:1,2015-04-13T10:45:00Z,29.6671,-81.2574,1.79,20.8,1111122 
NERRS,ioos:station:NOAA.NERRS:gtmpcwq:1,2015-04-13T11:45:00Z,29.6671,-81.2574,1.81,21.9,1111122 
NERRS,ioos:station:NOAA.NERRS:gtmpcwq:1,2015-04-13T12:45:00Z,29.6671,-81.2574,1.75,20.8,1111122 
NERRS,ioos:station:NOAA.NERRS:gtmpcwq:1,2015-04-13T13:45:00Z,29.6671,-81.2574,1.67,17.9,1111122 